STARLINK-30439, 57867

Orbit data source: Space-Track

STARLINK-30439, 57867 is a payload satellite owned by SpaceX/Seattle (US) in LEO that was launched on Sat, 16 Sep 2023 UTC via an FALCON 9 launch vehicle from the Air Force Eastern Test Range (AFETR). Payload-class satellites include a variety of spacecraft equipped with specific instruments for various scientific and technological missions. These include communications satellites like Starlink; space stations such as the ISS; scientific satellites like the Hubble; Earth observation satellites from companies like Planet Labs, Umbra, and HawkEye 360; GPS; miniature CubeSats for education and research; and military/defense satellites.

Loading next visibility...
Identifier
57867, 2023-144D
Orbit
LEO
Country
Flag of USUS
Related business
Manufacturer
SpaceX/Seattle
Mission
Operational Commercial Communications
Bus & Motor
STARLINK V2M, Unknown motor
Mass
730 kg wet, ~700 kg dry
Launch date (UTC)
2023-09-16 (2 years ago)
Launch vehicle
FALCON 9
Launch site
Air Force Eastern Test Range (AFETR)
Object type
Payload
Rocket body
Debris
Shape & HBR
Box + 2 Pan, 17.7 m
Radar Cross Section
33.884 m², Large (>1 m²)

Expand to show TLE details & history
Last TLE update: 2 days ago

TLE from 2 days ago
0 STARLINK-30439
1 57867U 23144D   25348.17918675 -.00001659  00000-0 -10780-3 0  9995
2 57867  43.0014  32.4621 0000955 277.8638  82.2096 15.02529798124759
Epoch: 2025-12-14T04:18Z
TLE epoch observation values (Epoch: 2025-12-14T04:18:01.735Z)
Latitude
Longitude
-115.14095°
Altitude
558.787 km
Speed
7.584 km/s
True Right ascension
02h 09m 50s
True Declination
0° 00' 00"
Sunlit
Object was in full shadow at epoch
Visualization orbit readout
Latitude
Unknown
Longitude
Unknown
Altitude
Unknown
Speed
Unknown
Apparent Right ascension
Unknown
Apparent Declination
Unknown
Sunlit
N/A
Visualization observer readout
Local Sidereal Time
15:11:09
Azimuth
Unknown
Elevation
Unknown
Doppler factor
Unknown
Orbital elements
Apogee altitude
561.685 km
Perigee altitude
560.36 km
Semi-major axis
6,939.159 km
Eccentricity
0.0001
Inclination
43.0014°
RAAN
32.4621°
Arg. of periapsis
277.8638°
True anomaly
82.22044°
Mean anomaly
82.2096°
Eccentric anomaly
82.21502°
Mean motion
3.75477 °/min
Orbital period
95.88 mins
BSTAR
-0.0001078
Loading maneuver chart data...
Computing Atmospheric mass density...
Loading historical data...
Loading historical data...
Loading historical data...
Loading historical data...
Loading historical data...
Loading historical data...
Loading historical data...

Documentation

Showing up to 5 results
|